Overview Statistics Trail Chart Weather Telemetry Raw packets
 

This is the latest recevied weather packets stored in our database for station/object KI5RAB. If no packets are shown the sender has not sent any weather packets the latest 10 day(s).

<< 45 46 47 48 49 50 51 >>
Time Temp. Humidity Pressure Rain* Wind** Luminosity Snow
1788358664 28.89° C 80% 1019.6 hPa 0 mm - 246 W/m² -
1788358360 28.33° C 81% 1019.5 hPa 0 mm - 232 W/m² -
1788358055 28.89° C 81% 1019.7 hPa 0 mm - 223 W/m² -
1788357749 28.33° C 82% 1019.7 hPa 0 mm - 217 W/m² -
1788357449 28.33° C 84% 1019.6 hPa 0 mm - 183 W/m² -
1788357145 28.33° C 83% 1019.5 hPa 0 mm - 171 W/m² -
1788356844 27.78° C 85% 1019.4 hPa 0 mm - 154 W/m² -
1788356539 27.78° C 85% 1019.3 hPa 0 mm - 134 W/m² -
1788356235 27.78° C 85% 1019.3 hPa 0 mm - 137 W/m² -
1788355934 27.78° C 84% 1019.4 hPa 0 mm - 123 W/m² -
1788355629 27.78° C 85% 1019.5 hPa 0 mm - 107 W/m² -
1788355325 27.22° C 86% 1019.5 hPa 0 mm - 108 W/m² -
1788355021 27.22° C 87% 1019.3 hPa 0 mm - 88 W/m² -
1788354717 26.67° C 88% 1019.1 hPa 0 mm - 78 W/m² -
1788354412 26.67° C 89% 1019.1 hPa 0 mm - 54 W/m² -
1788354107 26.11° C 90% 1019 hPa 0 mm - 58 W/m² -
1788353802 25.56° C 91% 1019.1 hPa 0 mm - 47 W/m² -
1788353498 25.56° C 92% 1019.3 hPa 0 mm - 33 W/m² -
1788353195 25.56° C 92% 1018.9 hPa 0 mm - 30 W/m² -
1788352894 25.56° C 92% 1018.8 hPa 0 mm - 21 W/m² -
1788352591 25° C 92% 1018.9 hPa 0 mm - 14 W/m² -
1788352290 25° C 92% 1018.9 hPa 0 mm - 9 W/m² -
1788351985 25° C 92% 1018.8 hPa 0 mm - 6 W/m² -
1788351680 25° C 92% 1018.7 hPa 0 mm - 4 W/m² -
1788351374 25° C 92% 1018.6 hPa 0 mm - 2 W/m² -

* Rain latest hour (hover to see other rain measurements)
** Current wind speed in m/s (hover to see current wind gust speed)